Current weather by "City, St" or "zip code"  
 

Current Conditions: Kalamazoo/Battle Creek International Airport, MI

Fair


42.0 F

Last Updated on Apr 23 2021, 5:53 am EDT
Humidity: 55%
Wind Speed: SW 8.1 mph
Barometer 30.04 in
Dewpoint: 27.0 F
Visibility: 10.00 mi
Precip: --
Heat Index: NA
Wind Chill: 37 F
Current conditions at:

Kalamazoo/Battle Creek International Airport, MI (KAZO)

Lat: 42.2283 Lon: 85.54595

Local Radar Image active severe weather and emergency alerts image image weather storm and storm spotter reports image weather observation monitoring service image
Local
Radar
Active
Alerts
Storm Reports Obs
Monitoring

Sign-up For Email & Text Message Weather Alert Notification Services



Advertise Here

Observation History for Kalamazoo/Battle Creek International Airport, MI


Time Wind
(mph)
Vis
(mi)
Weather Precip (in) Temperature (F) Relative
Humidity
Wind
Chill
(F)
Heat
Index
(F)
Pressure
Air Dwpt altimeter
(in)
sea level
(mb)
Rmks
5:53 am EDT SW 8.1 10.00 Fair -- 42.0 27.0 55% 37 NA 30.04 1017.9
4:53 am EDT SW 8.1 10.00 Fair -- 41.0 27.0 57% 36 NA 30.03 1017.6
3:53 am EDT SW 5.8 10.00 Fair -- 37.0 26.1 65% 32 NA 30.03 1017.4
2:53 am EDT S 6.9 10.00 Fair -- 37.0 26.1 65% 32 NA 30.02 1017.3
1:53 am EDT S 6.9 10.00 Fair -- 36.0 26.1 67% 30 NA 30.03 1017.5
12:53 am EDT S 4.6 10.00 Fair -- 39.0 26.1 60% 36 NA 30.03 1017.7
11:53 pm EDT SE 3.5 10.00 Fair -- 40.0 27.0 60% NA NA 30.04 1017.9
10:53 pm EDT S 3.5 10.00 Fair -- 37.0 25.0 62% NA NA 30.04 1018.2
9:53 pm EDT E 3.5 10.00 Fair -- 42.0 25.0 51% NA NA 30.04 1018.1
8:53 pm EDT N 0.0 10.00 Fair -- 46.0 24.1 42% NA NA 30.04 1017.8
7:53 pm EDT W 5.8 10.00 Fair -- 49.0 24.1 38% 47 NA 30.04 1017.8
6:53 pm EDT W 10.4 10.00 Fair -- 50.0 23.0 35% 46 NA 30.05 1018.2
5:53 pm EDT NW 13.8 G 19.6 10.00 Fair -- 50.0 21.9 33% 45 NA 30.05 1018.3
4:53 pm EDT W 15.0 G 29.9 10.00 Fair -- 48.0 17.1 29% 42 NA 30.06 1018.7
3:53 pm EDT W 11.5 G 23.0 10.00 Fair -- 48.0 17.1 29% 43 NA 30.07 1019.2
2:53 pm EDT W 12.7 G 25.3 10.00 Fair -- 47.0 17.1 30% 41 NA 30.08 1019.4
1:53 pm EDT W 17.3 G 25.3 10.00 Fair -- 47.0 17.1 30% 40 NA 30.09 1019.6
12:53 pm EDT W 11.5 10.00 Mostly Cloudy -- 45.0 19.9 37% 39 NA 30.09 1019.8
11:53 am EDT NW 13.8 G 20.7 10.00 Overcast -- 41.0 25.0 53% 33 NA 30.10 1020.3
10:53 am EDT SW 8.1 NULL Mostly Cloudy Trace 38.0 30.0 73% 32 NA 30.10 1020.2
9:53 am EDT SW 6.9 6.00 Light Snow Trace 35.0 30.0 82% 29 NA 30.10 1020.1
8:53 am EDT W 8.1 10.00 Partly Cloudy -- 37.0 26.1 65% 31 NA 30.09 1019.8
7:53 am EDT SW 5.8 10.00 Partly Cloudy -- 33.0 23.0 66% 28 NA 30.07 1019.2
6:53 am EDT SW 4.6 10.00 Overcast -- 31.0 21.9 69% 26 NA 30.06 1018.9

Regional Weather Observation


Battle Creek Executive Airport, MI (KBTL)

Fair
37.0 F

Grand Rapids, Gerald R. Ford International Airport, MI (KGRR)

A Few Clouds
42.0 F

Holland - West Michigan Regional Airport, MI (KBIV)

Fair
45.0 F

South Haven, South Haven Area Regional Airport, MI (KLWA)

Fair
46.0 F

Ionia County Airport, MI (KY70)

Fair
39.0 F

Southwest Michigan Regional Airport, MI (KBEH)

Fair
45.0 F

Advertise Here


Advertise Here